Fecha, hora, temperatura, viento dirección y velocidad, humedad y presión.

  • 16-01-2019 16:00:00 | 12.60°C | Oeste |14.00 km/h | 64.00% | 1008.70 hPa
  • 16-01-2019 15:00:00 | 12.70°C | Sudoeste |13.00 km/h | 62.00% | 1008.70 hPa
  • 16-01-2019 14:00:00 | 13.10°C | Sudoeste |15.00 km/h | 64.00% | 1008.90 hPa
  • 16-01-2019 13:00:00 | 12.20°C | Sur |18.00 km/h | 69.00% | 1009.40 hPa
  • 16-01-2019 12:00:00 | 11.00°C | Sur |14.00 km/h | 74.00% | 1010.50 hPa
  • 16-01-2019 11:00:00 | 9.90°C | Sudoeste |12.00 km/h | 78.00% | 1010.50 hPa
  • 16-01-2019 10:00:00 | 8.70°C | Sur |12.00 km/h | 76.00% | 1010.10 hPa
  • 16-01-2019 09:00:00 | 7.90°C | Sudoeste |14.00 km/h | 76.00% | 1009.80 hPa
  • 16-01-2019 08:00:00 | 6.60°C | Sudoeste |12.00 km/h | 77.00% | 1009.30 hPa
  • 16-01-2019 07:00:00 | 6.30°C | Oeste |13.00 km/h | 78.00% | 1009.00 hPa
  • 16-01-2019 06:00:00 | 7.20°C | Sudoeste |13.00 km/h | 82.00% | 1008.80 hPa
  • 16-01-2019 05:00:00 | 7.40°C | Sudoeste |9.00 km/h | 89.00% | 1009.00 hPa
  • 16-01-2019 04:00:00 | 7.40°C | Sudoeste |9.00 km/h | 90.00% | 1009.50 hPa
  • 16-01-2019 03:00:00 | 7.10°C | Sudoeste |12.00 km/h | 89.00% | 1009.70 hPa
  • 16-01-2019 02:00:00 | 7.50°C | Sudoeste |11.00 km/h | 89.00% | 1010.00 hPa
  • 16-01-2019 01:00:00 | 7.90°C | Sudoeste |9.00 km/h | 90.00% | 1010.50 hPa
  • 16-01-2019 00:00:00 | 7.60°C | Sur |7.00 km/h | 90.00% | 1011.00 hPa
  • 15-01-2019 23:00:00 | 8.10°C | Sur |6.00 km/h | 90.00% | 1011.40 hPa
  • 15-01-2019 22:00:00 | 7.70°C | Sur |12.00 km/h | 89.00% | 1011.60 hPa
  • 15-01-2019 21:00:00 | 7.80°C | Sur |10.00 km/h | 89.00% | 1011.90 hPa
  • 15-01-2019 20:00:00 | 8.20°C | Sudeste |13.00 km/h | 87.00% | 1012.10 hPa
  • 15-01-2019 19:00:00 | 9.10°C | Este |12.00 km/h | 84.00% | 1012.20 hPa
  • 15-01-2019 18:00:00 | 9.60°C | Este |17.00 km/h | 81.00% | 1012.10 hPa
  • 15-01-2019 17:00:00 | 10.00°C | Este |24.00 km/h | 79.00% | 1012.10 hPa
    • diseño web asturias Información sobre el estado de las mareas, altura de la marejada, temperatura del agua y otros datos de Gijón en Asturias.

      Surf Gijón